TITAN 3C TRANSTAGE DEB, 26048

Orbit data source: Space-Track

TITAN 3C TRANSTAGE DEB, 26048 is space debris in HEO originally from a launch on Tue, 21 Dec 1965 UTC launched from the Air Force Eastern Test Range (AFETR). Debris objects in space refer to the collection of defunct objects orbiting the Earth. Examples of debris include non-operational satellites, rocket bodies, and fragments generated from explosions, collisions, or faulty payload assembly.

Loading next visibility...
Identifier
26048, 1965-108AG
Orbit
HEO
Country
Flag of USUS
Related business
Manufacturer
Unknown
Mission
Spacecraft
Bus & Motor
Unknown
Mass
Unknown
Launch date (UTC)
1965-12-21 (61 years ago)
Launch vehicle
Unknown
Launch site
Air Force Eastern Test Range (AFETR)
Object type
Payload
Rocket body
Debris
Shape & HBR
Unknown shape, 0.3 m
Radar Cross Section
Medium (>0.1 m² and <1 m²)

Expand to show TLE details & history
Last TLE update: 1 week ago

TLE from 1 week ago
0 TITAN 3C TRANSTAGE DEB
1 26048U 65108AG  26243.55211257  .00000747  00000-0  38922-3 0  9990
2 26048  26.5892  26.4020 6238130 265.2041  26.0116  3.64404003335912
Epoch: 2026-08-31T13:15Z
TLE epoch observation values (Epoch: 2026-08-31T13:15:02.526Z)
Latitude
-0.00007°
Longitude
-152.10518°
Altitude
5,117.067 km
Speed
6.856 km/s
True Right ascension
01h 45m 32s
True Declination
0° 00' 00"
Sunlit
Object was in daylight at epoch
Visualization orbit readout
Latitude
Unknown
Longitude
Unknown
Altitude
Unknown
Speed
Unknown
Apparent Right ascension
Unknown
Apparent Declination
Unknown
Sunlit
N/A
Visualization observer readout
Local Sidereal Time
11:20:08
Azimuth
Unknown
Elevation
Unknown
Doppler factor
Unknown
Orbital elements
Apogee altitude
22,593.349 km
Perigee altitude
333.656 km
Semi-major axis
17,841.639 km
Eccentricity
0.62381
Inclination
26.5892°
RAAN
26.402°
Arg. of periapsis
265.2041°
True anomaly
95.03205°
Mean anomaly
26.0116°
Eccentric anomaly
55.44956°
Mean motion
0.91073 °/min
Orbital period
395.29 mins
BSTAR
0.00038922
Loading maneuver chart data...
Computing Atmospheric mass density...

Documentation

Showing up to 5 results
|